QPF
0.00 0.00 0.00 0.00 0.00 0.00 0.00 0.00 0.00 0.00 0.00 0.00 0.00 0.00 0.00 0.00 0.00 0.00 0.00 0.00 0.00 0.00 0.01 0.01 0.01 0.01 0.01 0.01 0.01 0.02 0.02 0.02 0.02 0.02 0.02 0.02 0.02 0.02
0.00 0.00 0.00 0.00 0.00 0.00 0.00 0.00 0.00 0.00 0.00 0.00 0.00 0.00 0.00 0.00 0.00 0.00 0.00 0.00 0.00 0.00 0.00 0.01 0.01 0.01 0.02 0.02 0.02 0.02 0.02 0.02 0.02 0.02 0.03 0.03 0.03 0.03
0.00 0.00 0.00 0.00 0.00 0.00 0.00 0.00 0.00 0.00 0.00 0.00 0.00 0.00 0.00 0.00 0.00 0.00 0.00 0.00 0.00 0.00 0.00 0.01 0.01 0.02 0.02 0.02 0.02 0.03 0.03 0.03 0.03 0.03 0.03 0.03 0.03 0.03
0.00 0.00 0.00 0.00 0.00 0.00 0.00 0.00 0.00 0.00 0.00 0.00 0.00 0.00 0.00 0.00 0.00 0.00 0.00 0.00 0.00 0.00 0.00 0.01 0.01 0.02 0.02 0.03 0.03 0.03 0.03 0.04 0.04 0.04 0.04 0.04 0.04 0.04
0.00 0.00 0.00 0.00 0.00 0.00 0.00 0.00 0.00 0.00 0.00 0.01 0.00 0.00 0.00 0.00 0.00 0.00 0.00 0.00 0.00 0.00 0.00 0.00 0.01 0.01 0.02 0.02 0.03 0.04 0.04 0.04 0.04 0.04 0.03 0.03 0.03 0.03
0.00 0.00 0.00 0.00 0.00 0.00 0.00 0.00 0.00 0.00 0.01 0.01 0.01 0.01 0.01 0.00 0.00 0.00 0.00 0.00 0.00 0.00 0.00 0.00 0.00 0.01 0.01 0.02 0.02 0.02 0.02 0.02 0.02 0.02 0.03 0.03 0.02 0.02
0.00 0.00 0.00 0.00 0.00 0.00 0.00 0.01 0.01 0.01 0.01 0.02 0.02 0.01 0.01 0.01 0.01 0.01 0.01 0.01 0.00 0.00 0.00 0.00 0.00 0.00 0.00 0.00 0.00 0.00 0.00 0.00 0.01 0.01 0.01 0.02 0.02 0.02
0.00 0.00 0.00 0.00 0.00 0.00 0.01 0.01 0.01 0.02 0.02 0.02 0.03 0.03 0.02 0.01 0.01 0.01 0.02 0.02 0.02 0.00 0.00 0.00 0.00 0.00 0.00 0.00 0.00 0.00 0.00 0.01 0.01 0.01 0.02 0.02 0.02 0.02
0.00 0.00 0.00 0.00 0.00 0.00 0.00 0.00 0.00 0.01 0.02 0.03 0.04 0.02 0.01 0.01 0.01 0.02 0.03 0.03 0.03 0.01 0.01 0.02 0.00 0.00 0.00 0.00 0.00 0.00 0.01 0.01 0.02 0.02 0.02 0.02 0.02 0.02
0.00 0.00 0.00 0.00 0.00 0.00 0.00 0.00 0.00 0.01 0.01 0.01 0.01 0.01 0.01 0.01 0.03 0.06 0.08 0.08 0.05 0.02 0.02 0.03 0.01 0.00 0.00 0.00 0.00 0.00 0.01 0.01 0.02 0.02 0.02 0.03 0.03 0.03
0.00 0.00 0.00 0.00 0.00 0.01 0.02 0.01 0.01 0.01 0.00 0.01 0.02 0.03 0.04 0.04 0.05 0.06 0.07 0.08 0.06 0.02 0.01 0.02 0.01 0.00 0.00 0.00 0.00 0.00 0.00 0.01 0.01 0.02 0.02 0.03 0.03 0.03
0.00 0.00 0.00 0.01 0.01 0.02 0.02 0.02 0.03 0.02 0.01 0.01 0.01 0.01 0.01 0.01 0.01 0.02 0.04 0.07 0.06 0.03 0.01 0.01 0.01 0.02 0.03 0.00 0.00 0.00 0.00 0.00 0.00 0.01 0.01 0.02 0.02 0.02
0.01 0.00 0.00 0.01 0.01 0.02 0.03 0.03 0.04 0.04 0.04 0.04 0.03 0.02 0.01 0.00 0.00 0.01 0.01 0.03 0.05 0.04 0.01 0.03 0.05 0.03 0.05 0.02 0.00 0.00 0.00 0.00 0.00 0.00 0.00 0.00 0.01 0.01
0.01 0.00 0.00 0.01 0.03 0.04 0.04 0.03 0.04 0.04 0.03 0.02 0.01 0.01 0.01 0.00 0.00 0.00 0.00 0.01 0.02 0.03 0.01 0.04 0.07 0.06 0.06 0.04 0.02 0.01 0.00 0.00 0.00 0.00 0.00 0.00 0.00 0.01
0.01 0.01 0.02 0.03 0.03 0.02 0.01 0.02 0.02 0.01 0.01 0.01 0.01 0.00 0.00 0.00 0.00 0.00 0.00 0.00 0.01 0.01 0.01 0.02 0.04 0.05 0.06 0.06 0.03 0.01 0.01 0.01 0.00 0.00 0.00 0.00 0.00 0.00
0.01 0.02 0.02 0.02 0.02 0.01 0.01 0.01 0.00 0.00 0.01 0.01 0.01 0.00 0.00 0.00 0.00 0.01 0.01 0.01 0.01 0.00 0.00 0.01 0.03 0.04 0.05 0.04 0.04 0.02 0.01 0.01 0.01 0.00 0.00 0.00 0.00 0.00
0.04 0.04 0.03 0.02 0.01 0.01 0.00 0.00 0.00 0.00 0.01 0.01 0.01 0.01 0.01 0.01 0.00 0.00 0.01 0.01 0.01 0.01 0.01 0.01 0.01 0.02 0.03 0.03 0.04 0.02 0.01 0.01 0.01 0.01 0.01 0.01 0.01 0.01
0.04 0.04 0.02 0.01 0.01 0.01 0.01 0.00 0.00 0.00 0.01 0.01 0.01 0.01 0.01 0.01 0.00 0.00 0.00 0.01 0.01 0.01 0.01 0.01 0.01 0.02 0.02 0.02 0.02 0.01 0.01 0.01 0.01 0.01 0.01 0.01 0.01 0.01
0.03 0.02 0.01 0.01 0.01 0.00 0.01 0.01 0.01 0.00 0.01 0.01 0.01 0.01 0.01 0.01 0.01 0.01 0.00 0.01 0.01 0.01 0.01 0.01 0.01 0.02 0.02 0.01 0.00 0.01 0.01 0.01 0.01 0.01 0.01 0.01 0.01 0.01
0.00 0.00 0.00 0.01 0.01 0.01 0.01 0.01 0.01 0.01 0.01 0.01 0.01 0.01 0.01 0.01 0.01 0.01 0.01 0.01 0.01 0.01 0.00 0.00 0.01 0.01 0.02 0.01 0.01 0.00 0.00 0.01 0.01 0.01 0.01 0.01 0.01 0.01
0.01 0.01 0.01 0.01 0.01 0.01 0.01 0.01 0.01 0.01 0.01 0.01 0.01 0.01 0.01 0.02 0.01 0.01 0.01 0.01 0.01 0.01 0.00 0.00 0.00 0.01 0.01 0.02 0.02 0.00 0.00 0.00 0.01 0.01 0.01 0.01 0.01 0.01
0.01 0.01 0.01 0.01 0.01 0.01 0.01 0.01 0.01 0.01 0.01 0.01 0.01 0.01 0.01 0.02 0.01 0.01 0.01 0.01 0.00 0.00 0.00 0.00 0.00 0.01 0.01 0.01 0.01 0.00 0.00 0.01 0.01 0.01 0.01 0.01 0.01 0.01
0.01 0.01 0.01 0.01 0.01 0.01 0.01 0.02 0.02 0.01 0.01 0.01 0.01 0.01 0.01 0.01 0.01 0.01 0.01 0.01 0.01 0.01 0.00 0.00 0.01 0.01 0.01 0.01 0.01 0.00 0.01 0.01 0.01 0.01 0.01 0.01 0.01 0.00
MSLP
1022.85 1022.94 1023.02 1023.05 1023.00 1022.82 1022.52 1022.09 1021.57 1020.99 1020.38 1019.79 1019.22 1018.70 1018.21 1017.74 1017.26 1016.77 1016.25 1015.71 1015.16 1014.64 1014.14 1013.71 1013.32 1012.99 1012.69 1012.41 1012.11 1011.78 1011.42 1011.04 1010.66 1010.29 1009.98 1009.75 1009.60 1009.53
1022.51 1022.55 1022.59 1022.60 1022.53 1022.37 1022.08 1021.69 1021.21 1020.66 1020.09 1019.51 1018.95 1018.41 1017.89 1017.38 1016.86 1016.33 1015.77 1015.21 1014.65 1014.12 1013.63 1013.20 1012.82 1012.49 1012.19 1011.89 1011.58 1011.24 1010.87 1010.47 1010.08 1009.71 1009.40 1009.18 1009.04 1009.00
1022.12 1022.10 1022.09 1022.05 1021.95 1021.77 1021.49 1021.12 1020.67 1020.16 1019.63 1019.08 1018.53 1018.00 1017.47 1016.94 1016.40 1015.83 1015.26 1014.67 1014.10 1013.56 1013.06 1012.62 1012.24 1011.90 1011.59 1011.28 1010.97 1010.63 1010.26 1009.88 1009.49 1009.14 1008.85 1008.64 1008.52 1008.48
1021.68 1021.60 1021.52 1021.42 1021.27 1021.06 1020.77 1020.41 1019.98 1019.50 1019.00 1018.48 1017.97 1017.45 1016.93 1016.40 1015.86 1015.29 1014.70 1014.11 1013.52 1012.96 1012.45 1011.99 1011.58 1011.23 1010.90 1010.59 1010.28 1009.95 1009.61 1009.25 1008.91 1008.59 1008.33 1008.14 1008.02 1007.98
1021.20 1021.05 1020.91 1020.74 1020.53 1020.27 1019.96 1019.58 1019.16 1018.71 1018.24 1017.75 1017.27 1016.79 1016.30 1015.79 1015.26 1014.71 1014.13 1013.53 1012.94 1012.36 1011.83 1011.33 1010.90 1010.51 1010.16 1009.84 1009.53 1009.23 1008.92 1008.61 1008.32 1008.05 1007.83 1007.66 1007.55 1007.49
1020.65 1020.46 1020.25 1020.02 1019.76 1019.45 1019.09 1018.69 1018.27 1017.82 1017.37 1016.92 1016.47 1016.03 1015.58 1015.12 1014.63 1014.11 1013.55 1012.97 1012.38 1011.79 1011.22 1010.69 1010.22 1009.79 1009.41 1009.07 1008.76 1008.48 1008.21 1007.96 1007.73 1007.52 1007.34 1007.19 1007.08 1007.01
1020.06 1019.83 1019.57 1019.29 1018.97 1018.60 1018.21 1017.78 1017.33 1016.88 1016.44 1016.01 1015.61 1015.21 1014.82 1014.41 1013.98 1013.51 1013.00 1012.45 1011.87 1011.27 1010.68 1010.11 1009.58 1009.10 1008.68 1008.32 1008.01 1007.75 1007.52 1007.32 1007.14 1006.99 1006.85 1006.73 1006.63 1006.53
1019.40 1019.15 1018.86 1018.54 1018.17 1017.77 1017.33 1016.87 1016.40 1015.94 1015.50 1015.10 1014.73 1014.38 1014.05 1013.72 1013.36 1012.95 1012.50 1011.99 1011.43 1010.83 1010.22 1009.61 1009.03 1008.50 1008.04 1007.64 1007.32 1007.06 1006.86 1006.70 1006.58 1006.47 1006.38 1006.28 1006.18 1006.07
1018.68 1018.42 1018.12 1017.77 1017.38 1016.95 1016.48 1015.99 1015.50 1015.03 1014.60 1014.21 1013.88 1013.58 1013.31 1013.05 1012.77 1012.44 1012.05 1011.60 1011.07 1010.48 1009.86 1009.22 1008.60 1008.03 1007.51 1007.08 1006.73 1006.48 1006.29 1006.16 1006.07 1006.00 1005.94 1005.86 1005.77 1005.65
1017.91 1017.65 1017.34 1016.99 1016.59 1016.14 1015.66 1015.16 1014.66 1014.18 1013.76 1013.38 1013.08 1012.83 1012.62 1012.43 1012.23 1011.98 1011.67 1011.27 1010.79 1010.23 1009.61 1008.96 1008.30 1007.69 1007.13 1006.67 1006.30 1006.02 1005.84 1005.72 1005.65 1005.61 1005.56 1005.50 1005.42 1005.31
1017.08 1016.82 1016.52 1016.19 1015.80 1015.36 1014.88 1014.38 1013.88 1013.40 1012.98 1012.63 1012.35 1012.14 1011.98 1011.86 1011.72 1011.55 1011.31 1010.99 1010.56 1010.03 1009.44 1008.79 1008.13 1007.49 1006.91 1006.42 1006.03 1005.74 1005.54 1005.43 1005.36 1005.32 1005.29 1005.24 1005.16 1005.06
1016.19 1015.94 1015.67 1015.36 1015.00 1014.58 1014.12 1013.64 1013.15 1012.69 1012.28 1011.94 1011.68 1011.51 1011.39 1011.32 1011.25 1011.14 1010.97 1010.71 1010.34 1009.87 1009.31 1008.69 1008.05 1007.42 1006.83 1006.33 1005.92 1005.62 1005.41 1005.28 1005.21 1005.17 1005.14 1005.09 1005.02 1004.91
1015.25 1015.03 1014.79 1014.51 1014.19 1013.81 1013.39 1012.94 1012.48 1012.03 1011.64 1011.32 1011.08 1010.92 1010.84 1010.80 1010.77 1010.72 1010.61 1010.42 1010.12 1009.71 1009.21 1008.64 1008.03 1007.43 1006.86 1006.37 1005.96 1005.65 1005.43 1005.29 1005.20 1005.15 1005.10 1005.05 1004.97 1004.86
1014.29 1014.09 1013.89 1013.66 1013.39 1013.06 1012.68 1012.27 1011.84 1011.42 1011.05 1010.73 1010.50 1010.36 1010.29 1010.28 1010.28 1010.27 1010.22 1010.08 1009.85 1009.51 1009.08 1008.58 1008.04 1007.49 1006.97 1006.50 1006.11 1005.80 1005.57 1005.41 1005.30 1005.23 1005.16 1005.09 1004.99 1004.87
1013.33 1013.16 1013.01 1012.83 1012.61 1012.34 1012.01 1011.64 1011.24 1010.85 1010.49 1010.18 1009.96 1009.82 1009.75 1009.75 1009.77 1009.79 1009.78 1009.70 1009.53 1009.27 1008.93 1008.51 1008.05 1007.57 1007.11 1006.69 1006.32 1006.02 1005.79 1005.61 1005.48 1005.37 1005.27 1005.17 1005.05 1004.91
1012.40 1012.28 1012.17 1012.04 1011.87 1011.65 1011.36 1011.03 1010.67 1010.30 1009.95 1009.65 1009.43 1009.28 1009.21 1009.21 1009.24 1009.28 1009.30 1009.27 1009.17 1008.99 1008.73 1008.41 1008.04 1007.65 1007.26 1006.89 1006.56 1006.28 1006.04 1005.84 1005.67 1005.53 1005.39 1005.26 1005.11 1004.94
1011.54 1011.45 1011.39 1011.30 1011.18 1011.00 1010.75 1010.45 1010.12 1009.76 1009.43 1009.14 1008.91 1008.75 1008.67 1008.66 1008.70 1008.75 1008.80 1008.82 1008.78 1008.68 1008.51 1008.29 1008.01 1007.71 1007.40 1007.09 1006.79 1006.52 1006.28 1006.06 1005.86 1005.67 1005.49 1005.32 1005.13 1004.93
1010.75 1010.70 1010.67 1010.62 1010.53 1010.38 1010.16 1009.89 1009.57 1009.23 1008.91 1008.61 1008.38 1008.22 1008.13 1008.12 1008.15 1008.22 1008.30 1008.36 1008.38 1008.36 1008.28 1008.14 1007.96 1007.75 1007.51 1007.26 1007.00 1006.74 1006.49 1006.25 1006.01 1005.78 1005.56 1005.34 1005.12 1004.89
1010.02 1010.01 1010.00 1009.98 1009.90 1009.77 1009.57 1009.31 1009.00 1008.68 1008.36 1008.07 1007.84 1007.67 1007.58 1007.57 1007.61 1007.69 1007.80 1007.90 1007.98 1008.03 1008.03 1007.99 1007.90 1007.77 1007.60 1007.40 1007.17 1006.93 1006.67 1006.40 1006.13 1005.86 1005.59 1005.33 1005.08 1004.83
1009.33 1009.33 1009.34 1009.32 1009.25 1009.13 1008.93 1008.68 1008.39 1008.08 1007.77 1007.49 1007.26 1007.10 1007.01 1007.00 1007.06 1007.16 1007.29 1007.44 1007.58 1007.69 1007.78 1007.81 1007.81 1007.75 1007.64 1007.49 1007.30 1007.07 1006.80 1006.52 1006.21 1005.91 1005.60 1005.31 1005.04 1004.78
1008.62 1008.63 1008.63 1008.61 1008.54 1008.41 1008.23 1007.98 1007.70 1007.40 1007.11 1006.84 1006.62 1006.48 1006.40 1006.40 1006.48 1006.60 1006.77 1006.96 1007.15 1007.33 1007.49 1007.60 1007.67 1007.68 1007.64 1007.53 1007.37 1007.16 1006.89 1006.60 1006.28 1005.95 1005.62 1005.31 1005.03 1004.76
1007.84 1007.84 1007.84 1007.81 1007.73 1007.60 1007.41 1007.18 1006.91 1006.63 1006.36 1006.11 1005.92 1005.79 1005.73 1005.75 1005.84 1006.00 1006.20 1006.43 1006.67 1006.91 1007.13 1007.31 1007.45 1007.53 1007.54 1007.49 1007.37 1007.18 1006.93 1006.64 1006.32 1005.98 1005.65 1005.34 1005.05 1004.80
1006.95 1006.94 1006.93 1006.88 1006.80 1006.67 1006.49 1006.28 1006.03 1005.77 1005.52 1005.31 1005.14 1005.03 1004.99 1005.03 1005.14 1005.32 1005.55 1005.81 1006.10 1006.39 1006.67 1006.91 1007.11 1007.26 1007.33 1007.33 1007.26 1007.11 1006.89 1006.63 1006.32 1006.00 1005.68 1005.38 1005.12 1004.89
Thickness
5477 5473 5468 5464 5460 5455 5450 5445 5441 5447 5455 5453 5448 5447 5443 5441 5439 5438 5437 5436 5436 5436 5437 5437 5438 5439 5440 5442 5444 5445 5448 5450 5452 5455 5458 5462 5466 5470
5467 5462 5458 5454 5450 5445 5439 5434 5429 5426 5433 5436 5431 5427 5424 5423 5421 5419 5418 5417 5416 5415 5416 5416 5417 5417 5418 5420 5421 5423 5426 5428 5431 5434 5437 5441 5445 5449
5457 5453 5448 5444 5439 5434 5429 5423 5418 5412 5416 5424 5415 5411 5406 5402 5401 5398 5396 5395 5394 5393 5393 5394 5395 5396 5397 5398 5400 5402 5404 5407 5410 5414 5418 5422 5426 5431
5447 5442 5438 5434 5429 5423 5418 5412 5407 5401 5398 5403 5404 5396 5390 5385 5382 5379 5377 5375 5374 5373 5372 5373 5374 5375 5377 5379 5381 5383 5386 5389 5392 5396 5400 5405 5408 5412
5438 5432 5428 5423 5418 5412 5406 5401 5395 5390 5385 5383 5386 5381 5375 5368 5364 5361 5359 5357 5355 5354 5354 5354 5355 5357 5359 5362 5364 5367 5370 5373 5376 5380 5383 5387 5392 5396
5428 5422 5417 5411 5406 5400 5395 5389 5383 5377 5371 5367 5367 5364 5358 5352 5345 5342 5343 5341 5339 5337 5337 5338 5340 5342 5344 5347 5350 5353 5356 5359 5363 5366 5370 5374 5378 5383
5419 5413 5407 5401 5396 5390 5385 5378 5370 5364 5357 5352 5349 5346 5342 5334 5328 5325 5325 5327 5327 5323 5325 5326 5326 5329 5331 5333 5337 5340 5344 5348 5352 5356 5360 5364 5368 5372
5409 5403 5396 5390 5383 5378 5372 5365 5356 5348 5340 5335 5333 5329 5325 5318 5313 5311 5310 5311 5316 5316 5313 5317 5316 5319 5322 5324 5327 5332 5336 5340 5344 5349 5353 5357 5360 5364
5397 5390 5385 5378 5370 5362 5356 5350 5341 5332 5325 5320 5317 5314 5309 5305 5301 5300 5300 5301 5305 5305 5303 5310 5310 5313 5316 5319 5322 5326 5330 5334 5338 5342 5346 5349 5353 5356
5384 5376 5369 5363 5354 5346 5341 5336 5329 5321 5312 5307 5303 5301 5298 5295 5292 5291 5292 5294 5297 5297 5295 5300 5305 5307 5311 5314 5316 5320 5324 5328 5332 5336 5339 5343 5346 5350
5373 5364 5354 5347 5341 5333 5327 5322 5318 5312 5305 5300 5297 5294 5292 5289 5287 5285 5284 5284 5289 5291 5290 5291 5298 5300 5305 5308 5312 5315 5318 5322 5325 5329 5333 5337 5340 5343
5362 5352 5342 5333 5327 5320 5313 5307 5304 5301 5296 5293 5289 5285 5282 5279 5278 5275 5273 5274 5278 5282 5285 5284 5288 5290 5297 5302 5304 5306 5309 5313 5318 5322 5326 5329 5332 5335
5347 5339 5329 5321 5314 5308 5302 5297 5293 5291 5288 5284 5279 5276 5273 5271 5269 5268 5266 5266 5268 5273 5276 5277 5281 5282 5286 5293 5296 5298 5301 5304 5308 5312 5316 5320 5323 5327
5331 5324 5316 5310 5304 5299 5293 5289 5285 5282 5277 5272 5269 5268 5266 5265 5264 5263 5262 5262 5264 5266 5269 5270 5273 5276 5280 5284 5288 5292 5294 5296 5299 5303 5306 5311 5314 5318
5315 5310 5305 5299 5293 5287 5282 5279 5276 5270 5266 5263 5262 5262 5260 5260 5259 5258 5259 5260 5261 5263 5266 5267 5269 5272 5275 5279 5283 5285 5287 5290 5292 5295 5298 5301 5305 5308
5301 5297 5293 5287 5281 5276 5272 5267 5262 5260 5258 5258 5257 5256 5255 5254 5253 5253 5253 5254 5256 5259 5262 5264 5266 5268 5271 5275 5278 5280 5281 5283 5286 5288 5290 5294 5297 5300
5290 5286 5280 5274 5269 5265 5261 5258 5255 5253 5252 5252 5251 5251 5251 5250 5249 5248 5248 5249 5249 5251 5254 5259 5262 5264 5267 5269 5273 5276 5277 5278 5280 5281 5283 5286 5290 5293
5278 5272 5267 5261 5257 5254 5252 5251 5249 5247 5247 5247 5247 5246 5246 5245 5244 5243 5243 5243 5243 5245 5247 5250 5253 5257 5261 5266 5269 5270 5271 5273 5274 5275 5277 5279 5283 5286
5264 5258 5253 5249 5247 5245 5244 5243 5242 5242 5242 5242 5242 5241 5241 5241 5240 5239 5239 5239 5239 5240 5241 5243 5245 5248 5252 5255 5261 5265 5266 5267 5268 5269 5271 5273 5276 5280
5250 5246 5243 5241 5239 5238 5238 5237 5238 5238 5238 5238 5238 5238 5237 5236 5236 5235 5235 5235 5235 5236 5236 5237 5239 5242 5245 5249 5253 5257 5260 5261 5262 5264 5266 5268 5270 5275
5242 5238 5236 5234 5233 5233 5233 5233 5233 5233 5234 5234 5234 5234 5233 5232 5232 5232 5231 5233 5233 5233 5232 5234 5236 5240 5241 5243 5246 5250 5253 5257 5258 5259 5261 5262 5264 5268
5234 5231 5230 5229 5228 5228 5228 5228 5229 5230 5230 5231 5231 5231 5231 5229 5229 5228 5228 5228 5228 5228 5229 5231 5232 5234 5236 5239 5241 5243 5246 5250 5253 5256 5258 5260 5260 5262
5226 5225 5224 5224 5223 5223 5223 5224 5225 5227 5227 5228 5229 5228 5228 5227 5226 5226 5226 5225 5225 5225 5225 5226 5227 5229 5232 5234 5235 5237 5240 5243 5246 5249 5252 5256 5259 5262